Time,TemperatureF,DewpointF,PressureIn,WindDirection,WindDirectionDegrees,WindSpeedMPH,WindSpeedGustMPH,Humidity,HourlyPrecipIn,Conditions,Clouds,dailyrainin,SoftwareType,DateUTC
2013-05-26 00:01:00,79.7,66.9,30.03,North,0,0.0,0.0,65,0.00,,SCT120,0.00,VWS V14.01,2013-05-26 04:01:00,
2013-05-26 00:06:00,79.7,66.9,30.03,North,0,0.0,0.0,65,0.00,,SCT120,0.00,VWS V14.01,2013-05-26 04:06:00,
2013-05-26 00:11:00,79.7,66.9,30.03,North,0,0.0,0.0,65,0.00,,SCT120,0.00,VWS V14.01,2013-05-26 04:11:00,
2013-05-26 00:16:00,79.5,66.7,30.03,North,0,0.0,0.0,65,0.00,,SCT120,0.00,VWS V14.01,2013-05-26 04:16:00,
2013-05-26 00:21:00,79.3,66.6,30.03,North,0,0.0,0.0,65,0.00,,SCT120,0.00,VWS V14.01,2013-05-26 04:21:00,
2013-05-26 00:26:00,79.2,66.4,30.00,North,0,0.0,0.0,65,0.00,,SCT120,0.00,VWS V14.01,2013-05-26 04:26:00,
2013-05-26 00:31:00,79.0,66.2,30.00,North,0,0.0,0.0,65,0.00,,SCT120,0.00,VWS V14.01,2013-05-26 04:31:00,
2013-05-26 00:36:00,79.0,66.7,30.00,North,0,0.0,0.0,66,0.00,,SCT120,0.00,VWS V14.01,2013-05-26 04:36:00,
2013-05-26 00:41:00,78.6,66.3,30.03,North,0,0.0,0.0,66,0.00,,SCT120,0.00,VWS V14.01,2013-05-26 04:41:00,
2013-05-26 00:46:00,78.3,66.4,30.03,North,0,0.0,0.0,67,0.00,,SCT120,0.00,VWS V14.01,2013-05-26 04:46:00,
2013-05-26 00:51:00,78.3,66.4,30.03,North,0,0.0,0.0,67,0.00,,SCT120,0.00,VWS V14.01,2013-05-26 04:51:00,
2013-05-26 00:56:00,78.3,66.8,30.03,North,0,0.0,0.0,68,0.00,,SCT120,0.00,VWS V14.01,2013-05-26 04:56:00,
2013-05-26 01:01:00,78.3,66.8,30.03,North,0,0.0,0.0,68,0.00,,SCT120,0.00,VWS V14.01,2013-05-26 05:01:00,
2013-05-26 01:06:00,78.3,66.8,30.03,North,0,0.0,0.0,68,0.00,,SCT120,0.00,VWS V14.01,2013-05-26 05:06:00,
2013-05-26 01:11:00,78.1,66.7,30.03,North,0,0.0,0.0,68,0.00,,SCT120,0.00,VWS V14.01,2013-05-26 05:11:00,
2013-05-26 01:16:00,77.9,66.5,30.03,North,0,0.0,0.0,68,0.00,,SCT120,0.00,VWS V14.01,2013-05-26 05:16:00,
2013-05-26 01:21:00,77.9,66.9,30.03,North,0,0.0,0.0,69,0.00,,SCT120,0.00,VWS V14.01,2013-05-26 05:21:00,
2013-05-26 01:26:00,77.7,66.8,30.03,North,0,0.0,0.0,69,0.00,,SCT120,0.00,VWS V14.01,2013-05-26 05:26:00,
2013-05-26 01:31:00,77.7,66.8,30.03,North,0,0.0,0.0,69,0.00,,SCT120,0.00,VWS V14.01,2013-05-26 05:31:00,
2013-05-26 01:36:00,77.7,66.8,30.03,North,0,0.0,0.0,69,0.00,,SCT120,0.00,VWS V14.01,2013-05-26 05:36:00,
2013-05-26 01:41:00,77.7,67.2,30.03,North,0,0.0,0.0,70,0.00,,SCT120,0.00,VWS V14.01,2013-05-26 05:41:00,
2013-05-26 01:46:00,77.5,66.6,30.03,North,0,0.0,0.0,69,0.00,,SCT120,0.00,VWS V14.01,2013-05-26 05:46:00,
2013-05-26 01:51:00,77.4,66.4,30.03,North,0,0.0,0.0,69,0.00,,SCT120,0.00,VWS V14.01,2013-05-26 05:51:00,
2013-05-26 01:56:00,77.4,66.8,30.00,North,0,0.0,0.0,70,0.00,,SCT120,0.00,VWS V14.01,2013-05-26 05:56:00,
2013-05-26 02:01:00,77.4,66.8,30.00,North,0,0.0,0.0,70,0.00,,SCT120,0.00,VWS V14.01,2013-05-26 06:01:00,
2013-05-26 02:06:00,77.2,66.7,30.00,North,0,0.0,0.0,70,0.00,,SCT120,0.00,VWS V14.01,2013-05-26 06:06:00,
2013-05-26 02:11:00,77.2,66.7,30.00,North,0,0.0,0.0,70,0.00,,SCT120,0.00,VWS V14.01,2013-05-26 06:11:00,
2013-05-26 02:16:00,77.2,67.1,30.00,North,0,0.0,0.0,71,0.00,,SCT120,0.00,VWS V14.01,2013-05-26 06:16:00,
2013-05-26 02:21:00,77.2,67.1,30.00,North,0,0.0,0.0,71,0.00,,SCT120,0.00,VWS V14.01,2013-05-26 06:21:00,
2013-05-26 02:26:00,77.4,67.2,30.00,North,0,0.0,0.0,71,0.00,,SCT120,0.00,VWS V14.01,2013-05-26 06:26:00,
2013-05-26 02:31:00,77.5,67.4,30.00,North,0,0.0,0.0,71,0.00,,SCT120,0.00,VWS V14.01,2013-05-26 06:31:00,
2013-05-26 02:36:00,77.2,66.7,30.00,North,0,0.0,0.0,70,0.00,,SCT120,0.00,VWS V14.01,2013-05-26 06:36:00,
2013-05-26 02:41:00,77.0,66.5,30.00,North,0,0.0,0.0,70,0.00,,SCT120,0.00,VWS V14.01,2013-05-26 06:41:00,
2013-05-26 02:46:00,77.0,66.9,30.00,North,0,0.0,0.0,71,0.00,,SCT120,0.00,VWS V14.01,2013-05-26 06:46:00,
2013-05-26 02:51:00,77.2,67.1,30.00,North,0,0.0,0.0,71,0.00,,SCT120,0.00,VWS V14.01,2013-05-26 06:51:00,
2013-05-26 02:56:00,77.0,67.3,30.00,North,0,0.0,0.0,72,0.00,,SCT120,0.00,VWS V14.01,2013-05-26 06:56:00,
2013-05-26 03:01:00,77.0,67.3,30.00,North,0,0.0,0.0,72,0.00,,SCT120,0.00,VWS V14.01,2013-05-26 07:01:00,
2013-05-26 03:06:00,76.6,66.9,30.00,North,0,0.0,0.0,72,0.00,,SCT120,0.00,VWS V14.01,2013-05-26 07:06:00,
2013-05-26 03:11:00,76.5,66.8,30.00,North,0,0.0,0.0,72,0.00,,SCT120,0.00,VWS V14.01,2013-05-26 07:11:00,
2013-05-26 03:16:00,76.3,66.6,30.00,North,0,0.0,0.0,72,0.00,,SCT120,0.00,VWS V14.01,2013-05-26 07:16:00,
2013-05-26 03:21:00,76.3,67.0,30.00,North,0,0.0,0.0,73,0.00,,SCT120,0.00,VWS V14.01,2013-05-26 07:21:00,
2013-05-26 03:27:00,76.1,66.8,30.00,North,0,0.0,0.0,73,0.00,,SCT120,0.00,VWS V14.01,2013-05-26 07:27:00,
2013-05-26 03:32:00,76.1,67.2,30.00,North,0,0.0,0.0,74,0.00,,SCT120,0.00,VWS V14.01,2013-05-26 07:32:00,
2013-05-26 03:37:00,75.9,67.0,30.00,North,0,0.0,0.0,74,0.00,,SCT120,0.00,VWS V14.01,2013-05-26 07:37:00,
2013-05-26 03:42:00,75.7,67.3,29.97,North,0,0.0,0.0,75,0.00,,SCT120,0.00,VWS V14.01,2013-05-26 07:42:00,
2013-05-26 03:47:00,75.9,67.8,29.97,North,0,0.0,0.0,76,0.00,,SCT120,0.00,VWS V14.01,2013-05-26 07:47:00,
2013-05-26 03:52:00,75.7,67.6,29.97,North,0,0.0,0.0,76,0.00,,SCT120,0.00,VWS V14.01,2013-05-26 07:52:00,
2013-05-26 03:57:00,75.7,67.6,29.97,North,0,0.0,0.0,76,0.00,,SCT120,0.00,VWS V14.01,2013-05-26 07:57:00,
2013-05-26 04:02:00,75.7,67.6,29.97,North,0,0.0,0.0,76,0.00,,SCT120,0.00,VWS V14.01,2013-05-26 08:02:00,
2013-05-26 04:07:00,75.7,67.6,29.97,North,0,0.0,0.0,76,0.00,,SCT120,0.00,VWS V14.01,2013-05-26 08:07:00,
2013-05-26 04:12:00,75.7,67.6,30.00,North,0,0.0,0.0,76,0.00,,SCT120,0.00,VWS V14.01,2013-05-26 08:12:00,
2013-05-26 04:17:00,75.7,67.6,30.00,North,0,0.0,0.0,76,0.00,,SCT120,0.00,VWS V14.01,2013-05-26 08:17:00,
2013-05-26 04:22:00,75.7,67.6,30.00,North,0,0.0,0.0,76,0.00,,SCT120,0.00,VWS V14.01,2013-05-26 08:22:00,
2013-05-26 04:27:00,75.9,68.2,30.00,North,0,0.0,0.0,77,0.00,,SCT120,0.00,VWS V14.01,2013-05-26 08:27:00,
2013-05-26 04:32:00,75.7,67.6,30.00,North,0,0.0,0.0,76,0.00,,SCT120,0.00,VWS V14.01,2013-05-26 08:32:00,
2013-05-26 04:37:00,75.4,67.3,30.00,North,0,0.0,0.0,76,0.00,,SCT120,0.00,VWS V14.01,2013-05-26 08:37:00,
2013-05-26 04:42:00,75.2,67.1,30.00,North,0,0.0,0.0,76,0.00,,SCT120,0.00,VWS V14.01,2013-05-26 08:42:00,
2013-05-26 04:47:00,75.4,67.3,30.00,North,0,0.0,0.0,76,0.00,,SCT120,0.00,VWS V14.01,2013-05-26 08:47:00,
2013-05-26 04:52:00,75.4,67.7,30.00,North,0,0.0,0.0,77,0.00,,SCT120,0.00,VWS V14.01,2013-05-26 08:52:00,
2013-05-26 04:57:00,75.2,67.5,30.00,North,0,0.0,0.0,77,0.00,,SCT120,0.00,VWS V14.01,2013-05-26 08:57:00,
2013-05-26 05:02:00,75.2,67.5,30.00,North,0,0.0,0.0,77,0.00,,SCT120,0.00,VWS V14.01,2013-05-26 09:02:00,
2013-05-26 05:07:00,75.2,67.5,30.00,North,0,0.0,0.0,77,0.00,,SCT120,0.00,VWS V14.01,2013-05-26 09:07:00,
2013-05-26 05:12:00,75.4,68.1,30.00,North,0,0.0,0.0,78,0.00,,SCT120,0.00,VWS V14.01,2013-05-26 09:12:00,
2013-05-26 05:17:00,75.4,68.1,30.00,North,0,0.0,0.0,78,0.00,,SCT120,0.00,VWS V14.01,2013-05-26 09:17:00,
2013-05-26 05:22:00,75.4,68.1,30.00,North,0,0.0,0.0,78,0.00,,SCT120,0.00,VWS V14.01,2013-05-26 09:22:00,
2013-05-26 05:27:00,75.4,68.1,30.00,North,0,0.0,0.0,78,0.00,,SCT120,0.00,VWS V14.01,2013-05-26 09:27:00,
2013-05-26 05:32:00,75.4,68.1,30.00,North,0,0.0,0.0,78,0.00,,SCT120,0.00,VWS V14.01,2013-05-26 09:32:00,
2013-05-26 05:37:00,75.0,67.7,30.00,North,0,0.0,0.0,78,0.00,,SCT120,0.00,VWS V14.01,2013-05-26 09:37:00,
2013-05-26 05:42:00,75.0,67.7,30.00,North,0,0.0,0.0,78,0.00,,SCT120,0.00,VWS V14.01,2013-05-26 09:42:00,
2013-05-26 05:47:00,75.0,68.1,30.00,North,0,0.0,0.0,79,0.00,,SCT120,0.00,VWS V14.01,2013-05-26 09:47:00,
2013-05-26 05:52:00,75.2,68.2,30.00,North,0,0.0,0.0,79,0.00,,SCT120,0.00,VWS V14.01,2013-05-26 09:52:00,
2013-05-26 05:57:00,75.2,68.2,30.00,North,0,0.0,0.0,79,0.00,,SCT120,0.00,VWS V14.01,2013-05-26 09:57:00,
2013-05-26 06:02:00,75.2,68.2,30.00,North,0,0.0,0.0,79,0.00,,SCT120,0.00,VWS V14.01,2013-05-26 10:02:00,
2013-05-26 06:07:00,75.2,68.6,30.00,North,0,0.0,0.0,80,0.00,,SCT120,0.00,VWS V14.01,2013-05-26 10:07:00,
2013-05-26 06:12:00,75.2,68.6,30.03,North,0,0.0,0.0,80,0.00,,SCT120,0.00,VWS V14.01,2013-05-26 10:12:00,
2013-05-26 06:17:00,75.2,68.6,30.03,North,0,0.0,0.0,80,0.00,,SCT120,0.00,VWS V14.01,2013-05-26 10:17:00,
2013-05-26 06:22:00,75.2,68.6,30.03,North,0,0.0,0.0,80,0.00,,SCT120,0.00,VWS V14.01,2013-05-26 10:22:00,
2013-05-26 06:27:00,75.4,68.8,30.03,North,0,0.0,0.0,80,0.00,,SCT120,0.00,VWS V14.01,2013-05-26 10:27:00,
2013-05-26 06:32:00,75.6,69.0,30.03,North,0,0.0,0.0,80,0.00,,SCT120,0.00,VWS V14.01,2013-05-26 10:32:00,
2013-05-26 06:37:00,75.9,69.7,30.03,North,0,0.0,0.0,81,0.00,,SCT120,0.00,VWS V14.01,2013-05-26 10:37:00,
2013-05-26 06:42:00,76.1,69.8,30.03,North,0,0.0,0.0,81,0.00,,SCT120,0.00,VWS V14.01,2013-05-26 10:42:00,
2013-05-26 06:47:00,76.5,69.8,30.03,North,0,0.0,0.0,80,0.00,,SCT120,0.00,VWS V14.01,2013-05-26 10:47:00,
2013-05-26 06:52:00,76.8,70.2,30.03,North,0,0.0,0.0,80,0.00,,SCT120,0.00,VWS V14.01,2013-05-26 10:52:00,
2013-05-26 06:57:00,77.2,70.2,30.03,North,0,0.0,0.0,79,0.00,,SCT120,0.00,VWS V14.01,2013-05-26 10:57:00,
2013-05-26 07:02:00,77.7,70.7,30.03,North,0,0.0,0.0,79,0.00,,SCT120,0.00,VWS V14.01,2013-05-26 11:02:00,
2013-05-26 07:07:00,78.1,71.0,30.03,North,0,0.0,0.0,79,0.00,,SCT120,0.00,VWS V14.01,2013-05-26 11:07:00,
2013-05-26 07:12:00,78.8,71.0,30.03,North,0,0.0,0.0,77,0.00,,SCT120,0.00,VWS V14.01,2013-05-26 11:12:00,
2013-05-26 07:17:00,79.0,70.4,30.03,North,0,0.0,0.0,75,0.00,,SCT120,0.00,VWS V14.01,2013-05-26 11:17:00,
2013-05-26 07:22:00,79.5,70.5,30.03,North,0,0.0,0.0,74,0.00,,SCT120,0.00,VWS V14.01,2013-05-26 11:22:00,
2013-05-26 07:27:00,79.9,70.5,30.03,North,0,0.0,0.0,73,0.00,,SCT120,0.00,VWS V14.01,2013-05-26 11:27:00,
2013-05-26 07:32:00,80.1,69.4,30.03,North,0,0.0,0.0,70,0.00,,SCT120,0.00,VWS V14.01,2013-05-26 11:32:00,
2013-05-26 07:37:00,80.6,69.1,30.03,North,0,0.0,0.0,68,0.00,,SCT120,0.00,VWS V14.01,2013-05-26 11:37:00,
2013-05-26 07:42:00,81.0,68.5,30.06,North,0,0.0,0.0,66,0.00,,SCT120,0.00,VWS V14.01,2013-05-26 11:42:00,
2013-05-26 07:47:00,81.3,68.0,30.06,North,0,0.0,0.0,64,0.00,,SCT120,0.00,VWS V14.01,2013-05-26 11:47:00,
2013-05-26 07:52:00,81.7,68.3,30.06,North,0,0.0,0.0,64,0.00,,SCT120,0.00,VWS V14.01,2013-05-26 11:52:00,
2013-05-26 07:57:00,82.0,67.8,30.06,North,0,0.0,0.0,62,0.00,,SCT120,0.00,VWS V14.01,2013-05-26 11:57:00,
2013-05-26 08:02:00,82.2,66.0,30.06,North,0,0.0,0.0,58,0.00,,SCT120,0.00,VWS V14.01,2013-05-26 12:02:00,
2013-05-26 08:07:00,82.4,66.2,30.06,North,0,0.0,0.0,58,0.00,,SCT120,0.00,VWS V14.01,2013-05-26 12:07:00,
2013-05-26 08:12:00,82.6,65.8,30.06,North,0,0.0,0.0,57,0.00,,SCT120,0.00,VWS V14.01,2013-05-26 12:12:00,
2013-05-26 08:17:00,82.8,66.5,30.06,North,0,0.0,0.0,58,0.00,,SCT120,0.00,VWS V14.01,2013-05-26 12:17:00,
2013-05-26 08:23:00,82.9,65.1,30.06,North,0,0.0,0.0,55,0.00,,SCT120,0.00,VWS V14.01,2013-05-26 12:23:00,
2013-05-26 08:28:00,83.3,64.4,30.06,North,0,0.0,0.0,53,0.00,,SCT120,0.00,VWS V14.01,2013-05-26 12:28:00,
2013-05-26 08:33:00,83.7,64.2,30.06,North,0,0.0,0.0,52,0.00,,SCT120,0.00,VWS V14.01,2013-05-26 12:33:00,
2013-05-26 08:38:00,84.0,62.8,30.06,North,0,0.0,0.0,49,0.00,,SCT120,0.00,VWS V14.01,2013-05-26 12:38:00,
2013-05-26 08:43:00,84.2,61.8,30.06,North,0,0.0,0.0,47,0.00,,SCT120,0.00,VWS V14.01,2013-05-26 12:43:00,
2013-05-26 08:48:00,84.6,60.9,30.06,North,0,0.0,0.0,45,0.00,,SCT120,0.00,VWS V14.01,2013-05-26 12:48:00,
2013-05-26 08:53:00,85.3,62.2,30.06,North,0,0.0,0.0,46,0.00,,SCT120,0.00,VWS V14.01,2013-05-26 12:53:00,
2013-05-26 08:58:00,85.3,60.9,30.06,North,0,0.0,0.0,44,0.00,,SCT120,0.00,VWS V14.01,2013-05-26 12:58:00,
2013-05-26 09:03:00,85.5,61.7,30.06,North,0,0.0,0.0,45,0.00,,SCT120,0.00,VWS V14.01,2013-05-26 13:03:00,
2013-05-26 09:08:00,85.6,61.9,30.06,North,0,0.0,0.0,45,0.00,,SCT120,0.00,VWS V14.01,2013-05-26 13:08:00,
2013-05-26 09:13:00,86.4,61.2,30.06,North,0,0.0,0.0,43,0.00,,SCT120,0.00,VWS V14.01,2013-05-26 13:13:00,
2013-05-26 09:18:00,86.9,58.3,30.06,North,0,0.0,0.0,38,0.00,,SCT120,0.00,VWS V14.01,2013-05-26 13:18:00,
2013-05-26 09:23:00,87.1,56.1,30.06,North,0,0.0,0.0,35,0.00,,SCT120,0.00,VWS V14.01,2013-05-26 13:23:00,
2013-05-26 09:28:00,86.5,55.7,30.06,North,0,0.0,0.0,35,0.00,,SCT120,0.00,VWS V14.01,2013-05-26 13:28:00,
2013-05-26 09:33:00,86.5,56.4,30.06,North,0,0.0,0.0,36,0.00,,SCT120,0.00,VWS V14.01,2013-05-26 13:33:00,
2013-05-26 09:38:00,86.7,57.4,30.06,North,0,0.0,0.0,37,0.00,,SCT120,0.00,VWS V14.01,2013-05-26 13:38:00,
2013-05-26 09:43:00,86.9,56.0,30.06,North,0,0.0,0.0,35,0.00,,SCT120,0.00,VWS V14.01,2013-05-26 13:43:00,
2013-05-26 09:48:00,87.1,56.9,30.06,North,0,0.0,0.0,36,0.00,,SCT120,0.00,VWS V14.01,2013-05-26 13:48:00,
2013-05-26 09:53:00,87.4,56.5,30.06,North,0,0.0,0.0,35,0.00,,SCT120,0.00,VWS V14.01,2013-05-26 13:53:00,
2013-05-26 09:58:00,88.2,53.7,30.06,North,0,0.0,0.0,31,0.00,,SCT120,0.00,VWS V14.01,2013-05-26 13:58:00,
2013-05-26 10:03:00,88.5,54.1,30.06,North,0,0.0,0.0,31,0.00,,SCT120,0.00,VWS V14.01,2013-05-26 14:03:00,
2013-05-26 10:08:00,89.2,52.9,30.06,North,0,0.0,0.0,29,0.00,,SCT120,0.00,VWS V14.01,2013-05-26 14:08:00,
2013-05-26 10:13:00,89.6,53.2,30.06,North,0,0.0,0.0,29,0.00,,SCT120,0.00,VWS V14.01,2013-05-26 14:13:00,
2013-05-26 10:18:00,89.1,53.6,30.06,North,0,0.0,0.0,30,0.00,,SCT120,0.00,VWS V14.01,2013-05-26 14:18:00,
2013-05-26 10:23:00,89.2,52.9,30.06,North,0,0.0,0.0,29,0.00,,SCT120,0.00,VWS V14.01,2013-05-26 14:23:00,
2013-05-26 10:28:00,89.4,53.9,30.06,North,0,0.0,0.0,30,0.00,,SCT120,0.00,VWS V14.01,2013-05-26 14:28:00,
2013-05-26 10:33:00,89.4,53.0,30.06,North,0,0.0,0.0,29,0.00,,SCT120,0.00,VWS V14.01,2013-05-26 14:33:00,
2013-05-26 10:38:00,88.0,52.7,30.06,North,0,0.0,0.0,30,0.00,,SCT120,0.00,VWS V14.01,2013-05-26 14:38:00,
2013-05-26 10:43:00,88.2,52.8,30.06,North,0,0.0,0.0,30,0.00,,SCT120,0.00,VWS V14.01,2013-05-26 14:43:00,
2013-05-26 10:48:00,88.9,52.5,30.06,North,0,0.0,0.0,29,0.00,,SCT120,0.00,VWS V14.01,2013-05-26 14:48:00,
2013-05-26 10:53:00,88.5,52.2,30.06,North,0,0.0,0.0,29,0.00,,SCT120,0.00,VWS V14.01,2013-05-26 14:53:00,
2013-05-26 10:58:00,89.1,52.7,30.06,North,0,0.0,0.0,29,0.00,,SCT120,0.00,VWS V14.01,2013-05-26 14:58:00,
2013-05-26 11:03:00,89.1,52.7,30.06,North,0,0.0,0.0,29,0.00,,SCT120,0.00,VWS V14.01,2013-05-26 15:03:00,
2013-05-26 11:08:00,89.6,52.2,30.06,North,0,0.0,0.0,28,0.00,,SCT120,0.00,VWS V14.01,2013-05-26 15:08:00,
2013-05-26 11:13:00,90.1,51.7,30.06,North,0,0.0,0.0,27,0.00,,SCT120,0.00,VWS V14.01,2013-05-26 15:13:00,
2013-05-26 11:18:00,90.1,52.7,30.06,North,0,0.0,0.0,28,0.00,,SCT120,0.00,VWS V14.01,2013-05-26 15:18:00,
2013-05-26 11:23:00,89.6,52.2,30.06,North,0,0.0,0.0,28,0.00,,SCT120,0.00,VWS V14.01,2013-05-26 15:23:00,
2013-05-26 11:28:00,89.1,51.8,30.06,North,0,0.0,0.0,28,0.00,,SCT120,0.00,VWS V14.01,2013-05-26 15:28:00,
2013-05-26 11:33:00,89.1,50.8,30.06,North,0,0.0,0.0,27,0.00,,SCT120,0.00,VWS V14.01,2013-05-26 15:33:00,
2013-05-26 11:38:00,88.3,49.1,30.06,North,0,0.0,0.0,26,0.00,,SCT120,0.00,VWS V14.01,2013-05-26 15:38:00,
2013-05-26 11:43:00,87.6,50.5,30.06,North,0,0.0,0.0,28,0.00,,SCT120,0.00,VWS V14.01,2013-05-26 15:43:00,
2013-05-26 11:48:00,87.6,51.5,30.06,North,0,0.0,0.0,29,0.00,,SCT120,0.00,VWS V14.01,2013-05-26 15:48:00,
2013-05-26 11:53:00,87.8,50.7,30.06,North,0,0.0,0.0,28,0.00,,SCT120,0.00,VWS V14.01,2013-05-26 15:53:00,
2013-05-26 11:58:00,88.0,51.8,30.03,North,0,0.0,0.0,29,0.00,,SCT120,0.00,VWS V14.01,2013-05-26 15:58:00,
2013-05-26 12:03:00,88.0,51.8,30.03,North,0,0.0,0.0,29,0.00,,SCT120,0.00,VWS V14.01,2013-05-26 16:03:00,
2013-05-26 12:08:00,87.8,51.6,30.03,North,0,0.0,0.0,29,0.00,,SCT120,0.00,VWS V14.01,2013-05-26 16:08:00,
2013-05-26 12:13:00,87.6,53.3,30.03,North,0,0.0,0.0,31,0.00,,SCT120,0.00,VWS V14.01,2013-05-26 16:13:00,
2013-05-26 12:18:00,87.6,55.8,30.03,North,0,0.0,0.0,34,0.00,,SCT120,0.00,VWS V14.01,2013-05-26 16:18:00,
2013-05-26 12:23:00,87.6,55.0,30.03,North,0,0.0,0.0,33,0.00,,SCT120,0.00,VWS V14.01,2013-05-26 16:23:00,
2013-05-26 12:28:00,87.4,54.8,30.03,North,0,0.0,0.0,33,0.00,,SCT120,0.00,VWS V14.01,2013-05-26 16:28:00,
2013-05-26 12:33:00,87.6,53.3,30.03,North,0,0.0,0.0,31,0.00,,SCT120,0.00,VWS V14.01,2013-05-26 16:33:00,
2013-05-26 12:38:00,88.0,53.6,30.03,North,0,0.0,0.0,31,0.00,,SCT120,0.00,VWS V14.01,2013-05-26 16:38:00,
2013-05-26 12:43:00,87.8,53.4,30.03,North,0,0.0,0.0,31,0.00,,SCT120,0.00,VWS V14.01,2013-05-26 16:43:00,
2013-05-26 12:48:00,87.8,54.3,30.03,North,0,0.0,0.0,32,0.00,,SCT120,0.00,VWS V14.01,2013-05-26 16:48:00,
2013-05-26 12:53:00,87.3,57.8,30.03,North,0,0.0,0.0,37,0.00,,SCT120,0.00,VWS V14.01,2013-05-26 16:53:00,
2013-05-26 12:58:00,85.5,58.4,30.03,North,0,0.0,0.0,40,0.04,,SCT120,0.04,VWS V14.01,2013-05-26 16:58:00,
2013-05-26 13:03:00,84.9,60.6,30.03,North,0,0.0,0.0,44,0.04,,SCT120,0.04,VWS V14.01,2013-05-26 17:03:00,
2013-05-26 13:08:00,85.3,60.9,30.03,North,0,0.0,0.0,44,0.04,,SCT120,0.04,VWS V14.01,2013-05-26 17:08:00,
2013-05-26 13:13:00,84.7,58.5,30.03,North,0,0.0,0.0,41,0.04,,SCT120,0.04,VWS V14.01,2013-05-26 17:13:00,
2013-05-26 13:18:00,85.1,60.8,30.03,North,0,0.0,0.0,44,0.04,,SCT120,0.04,VWS V14.01,2013-05-26 17:18:00,
2013-05-26 13:23:00,85.5,62.3,30.03,North,0,0.0,0.0,46,0.04,,SCT120,0.04,VWS V14.01,2013-05-26 17:23:00,
2013-05-26 13:28:00,86.2,63.0,30.03,North,0,0.0,0.0,46,0.04,,SCT120,0.04,VWS V14.01,2013-05-26 17:28:00,
2013-05-26 13:33:00,87.1,61.9,30.03,North,0,0.0,0.0,43,0.04,,SCT120,0.04,VWS V14.01,2013-05-26 17:33:00,
2013-05-26 13:38:00,88.2,62.2,30.03,North,0,0.0,0.0,42,0.04,,SCT120,0.04,VWS V14.01,2013-05-26 17:38:00,
2013-05-26 13:43:00,88.3,58.8,30.03,North,0,0.0,0.0,37,0.04,,SCT120,0.04,VWS V14.01,2013-05-26 17:43:00,
2013-05-26 13:48:00,89.2,59.6,30.03,North,0,0.0,0.0,37,0.04,,SCT120,0.04,VWS V14.01,2013-05-26 17:48:00,
2013-05-26 13:53:00,89.6,55.9,30.03,North,0,0.0,0.0,32,0.04,,SCT120,0.04,VWS V14.01,2013-05-26 17:53:00,
2013-05-26 13:58:00,89.6,54.1,30.03,North,0,0.0,0.0,30,0.04,,SCT120,0.04,VWS V14.01,2013-05-26 17:58:00,
2013-05-26 14:03:00,89.1,53.6,30.03,North,0,0.0,0.0,30,0.00,,SCT120,0.04,VWS V14.01,2013-05-26 18:03:00,
2013-05-26 14:08:00,88.5,53.2,30.03,North,0,0.0,0.0,30,0.00,,SCT120,0.04,VWS V14.01,2013-05-26 18:08:00,
2013-05-26 14:13:00,88.2,54.6,30.03,North,0,0.0,0.0,32,0.00,,SCT120,0.04,VWS V14.01,2013-05-26 18:13:00,
2013-05-26 14:18:00,88.2,54.6,30.03,North,0,0.0,0.0,32,0.00,,SCT120,0.04,VWS V14.01,2013-05-26 18:18:00,
2013-05-26 14:23:00,88.3,54.8,30.03,North,0,0.0,0.0,32,0.00,,SCT120,0.04,VWS V14.01,2013-05-26 18:23:00,
2013-05-26 14:28:00,88.5,54.1,30.03,North,0,0.0,0.0,31,0.00,,SCT120,0.04,VWS V14.01,2013-05-26 18:28:00,
2013-05-26 14:33:00,87.8,54.3,30.03,North,0,0.0,0.0,32,0.00,,SCT120,0.04,VWS V14.01,2013-05-26 18:33:00,
2013-05-26 14:38:00,87.1,55.3,30.03,North,0,0.0,0.0,34,0.00,,SCT120,0.04,VWS V14.01,2013-05-26 18:38:00,
2013-05-26 14:43:00,86.7,55.8,30.03,North,0,0.0,0.0,35,0.00,,SCT120,0.04,VWS V14.01,2013-05-26 18:43:00,
2013-05-26 14:48:00,87.1,56.9,30.03,North,0,0.0,0.0,36,0.00,,SCT120,0.04,VWS V14.01,2013-05-26 18:48:00,
2013-05-26 14:53:00,86.9,54.4,30.03,North,0,0.0,0.0,33,0.00,,SCT120,0.04,VWS V14.01,2013-05-26 18:53:00,
2013-05-26 14:58:00,86.9,56.0,30.03,North,0,0.0,0.0,35,0.00,,SCT120,0.04,VWS V14.01,2013-05-26 18:58:00,
2013-05-26 15:03:00,86.9,56.0,30.03,North,0,0.0,0.0,35,0.00,,SCT120,0.04,VWS V14.01,2013-05-26 19:03:00,
2013-05-26 15:08:00,86.9,56.0,30.03,North,0,0.0,0.0,35,0.00,,SCT120,0.04,VWS V14.01,2013-05-26 19:08:00,
2013-05-26 15:13:00,86.5,56.4,30.00,North,0,0.0,0.0,36,0.00,,SCT120,0.04,VWS V14.01,2013-05-26 19:13:00,
2013-05-26 15:18:00,86.0,56.0,30.00,North,0,0.0,0.0,36,0.00,,SCT120,0.04,VWS V14.01,2013-05-26 19:18:00,
2013-05-26 15:23:00,86.2,57.6,30.00,North,0,0.0,0.0,38,0.00,,SCT120,0.04,VWS V14.01,2013-05-26 19:23:00,
2013-05-26 15:28:00,86.0,58.2,30.00,North,0,0.0,0.0,39,0.00,,SCT120,0.04,VWS V14.01,2013-05-26 19:28:00,
2013-05-26 15:33:00,85.6,59.3,30.00,North,0,0.0,0.0,41,0.00,,SCT120,0.04,VWS V14.01,2013-05-26 19:33:00,
2013-05-26 15:38:00,85.5,58.4,30.00,North,0,0.0,0.0,40,0.00,,SCT120,0.04,VWS V14.01,2013-05-26 19:38:00,
2013-05-26 15:43:00,85.5,58.4,30.00,North,0,0.0,0.0,40,0.00,,SCT120,0.04,VWS V14.01,2013-05-26 19:43:00,
2013-05-26 15:49:00,85.1,58.1,30.00,North,0,0.0,0.0,40,0.00,,SCT120,0.04,VWS V14.01,2013-05-26 19:49:00,
2013-05-26 15:54:00,84.9,58.6,30.00,North,0,0.0,0.0,41,0.00,,SCT120,0.04,VWS V14.01,2013-05-26 19:54:00,
2013-05-26 15:59:00,85.1,60.1,30.00,North,0,0.0,0.0,43,0.00,,SCT120,0.04,VWS V14.01,2013-05-26 19:59:00,
2013-05-26 16:04:00,84.9,61.2,30.00,North,0,0.0,0.0,45,0.00,,SCT120,0.04,VWS V14.01,2013-05-26 20:04:00,
2013-05-26 16:09:00,84.9,62.5,30.00,North,0,0.0,0.0,47,0.00,,SCT120,0.04,VWS V14.01,2013-05-26 20:09:00,
2013-05-26 16:14:00,84.6,64.5,30.00,North,0,0.0,0.0,51,0.00,,SCT120,0.04,VWS V14.01,2013-05-26 20:14:00,
2013-05-26 16:19:00,84.2,65.2,30.00,North,0,0.0,0.0,53,0.00,,SCT120,0.04,VWS V14.01,2013-05-26 20:19:00,
2013-05-26 16:24:00,84.0,66.7,30.00,North,0,0.0,0.0,56,0.00,,SCT120,0.04,VWS V14.01,2013-05-26 20:24:00,
2013-05-26 16:29:00,84.0,67.7,30.00,North,0,0.0,0.0,58,0.00,,SCT120,0.04,VWS V14.01,2013-05-26 20:29:00,
2013-05-26 16:34:00,83.8,68.0,30.00,North,0,0.0,0.0,59,0.00,,SCT120,0.04,VWS V14.01,2013-05-26 20:34:00,
2013-05-26 16:39:00,83.8,68.0,30.00,North,0,0.0,0.0,59,0.00,,SCT120,0.04,VWS V14.01,2013-05-26 20:39:00,
2013-05-26 16:44:00,84.0,68.2,30.00,North,0,0.0,0.0,59,0.00,,SCT120,0.04,VWS V14.01,2013-05-26 20:44:00,
2013-05-26 16:49:00,84.0,68.7,30.00,North,0,0.0,0.0,60,0.00,,SCT120,0.04,VWS V14.01,2013-05-26 20:49:00,
2013-05-26 16:54:00,84.0,68.2,30.00,North,0,0.0,0.0,59,0.00,,SCT120,0.04,VWS V14.01,2013-05-26 20:54:00,
2013-05-26 16:59:00,84.0,66.7,30.00,North,0,0.0,0.0,56,0.00,,SCT120,0.04,VWS V14.01,2013-05-26 20:59:00,
2013-05-26 17:04:00,83.8,66.5,30.00,North,0,0.0,0.0,56,0.00,,SCT120,0.04,VWS V14.01,2013-05-26 21:04:00,
2013-05-26 17:09:00,83.7,66.3,30.00,North,0,0.0,0.0,56,0.00,,SCT120,0.04,VWS V14.01,2013-05-26 21:09:00,
2013-05-26 17:14:00,83.5,65.6,30.00,North,0,0.0,0.0,55,0.00,,SCT120,0.04,VWS V14.01,2013-05-26 21:14:00,
2013-05-26 17:19:00,83.5,66.2,30.00,North,0,0.0,0.0,56,0.00,,SCT120,0.04,VWS V14.01,2013-05-26 21:19:00,
2013-05-26 17:24:00,83.7,66.3,30.00,North,0,0.0,0.0,56,0.00,,SCT120,0.04,VWS V14.01,2013-05-26 21:24:00,
2013-05-26 17:29:00,83.7,66.3,30.00,North,0,0.0,0.0,56,0.00,,SCT120,0.04,VWS V14.01,2013-05-26 21:29:00,
2013-05-26 17:34:00,83.5,66.2,30.00,North,0,0.0,0.0,56,0.00,,SCT120,0.04,VWS V14.01,2013-05-26 21:34:00,
2013-05-26 21:32:00,80.2,68.7,30.06,North,0,0.0,0.0,68,0.00,,SCT120,0.04,VWS V14.01,2013-05-27 01:32:00,
2013-05-26 21:37:00,80.2,68.7,30.06,North,0,0.0,0.0,68,0.00,,SCT120,0.04,VWS V14.01,2013-05-27 01:37:00,
2013-05-26 21:42:00,80.2,68.7,30.06,North,0,0.0,0.0,68,0.00,,SCT120,0.04,VWS V14.01,2013-05-27 01:42:00,
2013-05-26 21:47:00,80.2,68.7,30.06,North,0,0.0,0.0,68,0.00,,SCT120,0.04,VWS V14.01,2013-05-27 01:47:00,
2013-05-26 21:52:00,80.2,69.2,30.06,North,0,0.0,0.0,69,0.00,,SCT120,0.04,VWS V14.01,2013-05-27 01:52:00,
2013-05-26 21:57:00,80.2,69.6,30.06,North,0,0.0,0.0,70,0.00,,SCT120,0.04,VWS V14.01,2013-05-27 01:57:00,
2013-05-26 22:02:00,80.1,69.8,30.06,North,0,0.0,0.0,71,0.00,,SCT120,0.04,VWS V14.01,2013-05-27 02:02:00,
2013-05-26 22:07:00,79.9,70.5,30.06,North,0,0.0,0.0,73,0.04,,SCT120,0.08,VWS V14.01,2013-05-27 02:07:00,
2013-05-26 22:12:00,79.3,70.7,30.06,North,0,0.0,0.0,75,0.08,,SCT120,0.12,VWS V14.01,2013-05-27 02:12:00,
2013-05-26 22:17:00,78.8,71.0,30.06,North,0,0.0,0.0,77,0.16,,SCT120,0.20,VWS V14.01,2013-05-27 02:17:00,
2013-05-26 22:22:00,78.6,71.2,30.06,North,0,0.0,0.0,78,0.24,,SCT120,0.28,VWS V14.01,2013-05-27 02:22:00,
2013-05-26 22:27:00,78.6,71.6,30.06,North,0,0.0,0.0,79,0.24,,SCT120,0.28,VWS V14.01,2013-05-27 02:27:00,
2013-05-26 22:32:00,78.6,71.6,30.06,North,0,0.0,0.0,79,0.24,,SCT120,0.28,VWS V14.01,2013-05-27 02:32:00,
2013-05-26 22:37:00,78.6,71.9,30.06,North,0,0.0,0.0,80,0.24,,SCT120,0.28,VWS V14.01,2013-05-27 02:37:00,
2013-05-26 22:42:00,78.6,71.9,30.06,North,0,0.0,0.0,80,0.24,,SCT120,0.28,VWS V14.01,2013-05-27 02:42:00,
2013-05-26 22:47:00,78.6,71.9,30.06,North,0,0.0,0.0,80,0.24,,SCT120,0.28,VWS V14.01,2013-05-27 02:47:00,
2013-05-26 22:52:00,78.6,71.9,30.06,North,0,0.0,0.0,80,0.24,,SCT120,0.28,VWS V14.01,2013-05-27 02:52:00,
2013-05-26 22:57:00,78.6,71.9,30.06,North,0,0.0,0.0,80,0.24,,SCT120,0.28,VWS V14.01,2013-05-27 02:57:00,
2013-05-26 23:02:00,78.6,71.9,30.06,North,0,0.0,0.0,80,0.24,,SCT120,0.28,VWS V14.01,2013-05-27 03:02:00,
2013-05-26 23:07:00,78.6,71.9,30.06,North,0,0.0,0.0,80,0.24,,SCT120,0.28,VWS V14.01,2013-05-27 03:07:00,
2013-05-26 23:12:00,78.6,71.9,30.06,North,0,0.0,0.0,80,0.24,,SCT120,0.28,VWS V14.01,2013-05-27 03:12:00,
2013-05-26 23:17:00,78.4,71.4,30.06,North,0,0.0,0.0,79,0.24,,SCT120,0.28,VWS V14.01,2013-05-27 03:17:00,
2013-05-26 23:22:00,78.4,71.8,30.06,North,0,0.0,0.0,80,0.00,,SCT120,0.28,VWS V14.01,2013-05-27 03:22:00,
2013-05-26 23:29:00,78.3,71.2,30.06,North,0,0.0,0.0,79,0.00,,SCT120,0.28,VWS V14.01,2013-05-27 03:29:00,
2013-05-26 23:34:00,78.3,71.2,30.06,North,0,0.0,0.0,79,0.00,,SCT120,0.28,VWS V14.01,2013-05-27 03:34:00,
2013-05-26 23:39:00,78.3,71.2,30.06,North,0,0.0,0.0,79,0.00,,SCT120,0.28,VWS V14.01,2013-05-27 03:39:00,
2013-05-26 23:44:00,78.3,71.2,30.06,North,0,0.0,0.0,79,0.00,,SCT120,0.28,VWS V14.01,2013-05-27 03:44:00,
2013-05-26 23:49:00,78.3,71.2,30.06,North,0,0.0,0.0,79,0.00,,SCT120,0.28,VWS V14.01,2013-05-27 03:49:00,
2013-05-26 23:56:00,78.3,71.2,30.06,North,0,0.0,0.0,79,0.00,,SCT120,0.28,VWS V14.01,2013-05-27 03:56:00,